Tracking 30922 objects as of 2-Jul-2025
HD Live streaming from Space Station
objects crossing your sky now

STARLINK-5422

Track STARLINK-5422 now!
10-day predictions
STARLINK-5422 is classified as:


NORAD ID: 54804
Int'l Code: 2022-175AY
Perigee: 545.9 km
Apogee: 547.8 km
Inclination: 53.2 °
Period: 95.4 minutes
Semi major axis: 6917 km
RCS: Unknown
Launch date: December 17, 2022
Source: United States (US)
Launch site: AIR FORCE EASTERN TEST RANGE (AFETR)
Your satellite tracking list
Your tracking list is empty




NASA's NSSDC Master Catalog

Two Line Element Set (TLE):
1 54804U 22175AY  25182.95271842  .00000349  00000-0  40027-4 0  9997
2 54804  53.2181  74.2388 0001385  87.4053 272.7098 15.08838223142281
Source of the keplerian elements: AFSPC